Overview Statistics Trail Chart Weather Telemetry Raw packets
 

This is the latest recevied weather packets stored in our database for station/object KB9PVH-8. If no packets are shown the sender has not sent any weather packets the latest 10 day(s).

<< 3 4 5 6 7 8 9 >>
Time Temp. Humidity Pressure Rain* Wind** Luminosity Snow
1788571394 24.44° C - - 0 mm 0 m/s - -
1788570553 25° C - - 0 mm 0 m/s - -
1788569715 25° C - - 0 mm 0 m/s - -
1788568932 25.56° C - - 0 mm 0 m/s - -
1788568873 25.56° C - - 0 mm 0 m/s - -
1788568033 26.11° C - - 0 mm 0 m/s - -
1788567193 26.11° C - - 0 mm 0 m/s - -
1788566353 26.67° C - - 0 mm 0.89 m/s, ° - -
1788565513 27.22° C - - 0 mm 0.45 m/s, ° - -
1788564673 27.78° C - - 0 mm 0.89 m/s, ° - -
1788563833 27.78° C - - 0 mm 1.34 m/s, ° - -
1788562993 28.33° C - - 0 mm 2.24 m/s, ° - -
1788562153 28.33° C - - 0 mm 3.13 m/s, ° - -
1788561313 28.89° C - - 0 mm 3.58 m/s, ° - -
1788560443 28.89° C - - 0 mm 4.92 m/s, ° - -
1788559603 28.89° C - - 0 mm 5.36 m/s, ° - -
1788558763 28.89° C - - 0 mm 5.81 m/s, ° - -
1788557893 29.44° C - - 0 mm 5.81 m/s, ° - -
1788557053 30° C - - 0 mm 7.6 m/s, ° - -
1788556213 30.56° C - - 0 mm 16.99 m/s, ° - -
1788555373 30° C - - 0 mm 16.09 m/s, ° - -
1788554533 30° C - - 0 mm 19.22 m/s, ° - -
1788553693 29.44° C - - 0 mm 23.25 m/s, ° - -
1788552854 28.89° C - - 0 mm 26.38 m/s, ° - -
1788552014 27.78° C - - 0 mm 29.5 m/s, ° - -

* Rain latest hour (hover to see other rain measurements)
** Current wind speed in m/s (hover to see current wind gust speed)